Location: Unspecified
(0.0000°N, 0.0000°E)
Time: 13:50:14
(UTC+00:00)

NNS O-18 - Pass Details

Date: 13 November 2025
Orbit: 1012 x 1121 km, 90.0° (Epoch: 09 December)

Event Time Altitude Azimuth Distance (km) Brightness Sun altitude
Exits shadow 02:56:51 10° 188° (S) 2,817 10.5 -39.4°
Drops below altitude 10° 02:56:59 10° 188° (S) 2,863 10.6 -39.4°
Sets 02:59:24 0° 186° (S) 3,775 11.3 -38.8°
